Time,TemperatureF,DewpointF,PressureIn,WindDirection,WindDirectionDegrees,WindSpeedMPH,WindSpeedGustMPH,Humidity,HourlyPrecipIn,Conditions,Clouds,dailyrainin,SoftwareType,DateUTC
2013-01-04 00:03:00,16.7,-0.9,29.18,SSW,207,6.3,6.3,45,0.00,,,0.00,VWS V14.01,2013-01-04 06:03:00,
2013-01-04 00:08:00,16.9,-0.8,29.18,SSW,213,4.9,4.9,45,0.00,,,0.00,VWS V14.01,2013-01-04 06:08:00,
2013-01-04 00:13:00,16.9,-0.8,29.18,SSW,212,4.0,4.0,45,0.00,,,0.00,VWS V14.01,2013-01-04 06:13:00,
2013-01-04 00:18:00,16.9,-0.8,29.18,SSW,213,5.4,5.4,45,0.00,,,0.00,VWS V14.01,2013-01-04 06:18:00,
2013-01-04 00:23:00,16.9,-0.8,29.18,SSW,213,4.0,4.0,45,0.00,,,0.00,VWS V14.01,2013-01-04 06:23:00,
2013-01-04 00:28:00,17.1,-0.6,29.18,SW,217,6.3,6.3,45,0.00,,,0.00,VWS V14.01,2013-01-04 06:28:00,
2013-01-04 00:33:00,17.1,-0.6,29.18,SW,218,4.9,5.4,45,0.00,,,0.00,VWS V14.01,2013-01-04 06:33:00,
2013-01-04 00:38:00,16.9,-0.8,29.18,SW,217,4.0,4.0,45,0.00,,,0.00,VWS V14.01,2013-01-04 06:38:00,
2013-01-04 00:43:00,16.7,-0.9,29.18,SW,217,3.6,3.6,45,0.00,,,0.00,VWS V14.01,2013-01-04 06:43:00,
2013-01-04 00:48:00,16.7,-0.9,29.15,SW,214,4.0,5.8,45,0.00,,,0.00,VWS V14.01,2013-01-04 06:48:00,
2013-01-04 00:53:00,16.5,-1.1,29.15,SSW,213,3.1,3.1,45,0.00,,,0.00,VWS V14.01,2013-01-04 06:53:00,
2013-01-04 00:58:00,16.5,-1.1,29.15,SSW,213,3.1,3.1,45,0.00,,,0.00,VWS V14.01,2013-01-04 06:58:00,
2013-01-04 01:03:00,16.2,-1.4,29.15,SSW,210,0.0,0.0,45,0.00,,,0.00,VWS V14.01,2013-01-04 07:03:00,
2013-01-04 01:08:00,16.2,-1.4,29.15,SSW,211,4.9,4.9,45,0.00,,,0.00,VWS V14.01,2013-01-04 07:08:00,
2013-01-04 01:13:00,16.7,-0.9,29.12,SSW,212,4.9,4.9,45,0.00,,,0.00,VWS V14.01,2013-01-04 07:13:00,
2013-01-04 01:18:00,16.7,-0.9,29.12,SSW,211,0.0,0.0,45,0.00,,,0.00,VWS V14.01,2013-01-04 07:18:00,
2013-01-04 01:23:00,16.5,-1.1,29.15,SSW,210,4.0,4.0,45,0.00,,,0.00,VWS V14.01,2013-01-04 07:23:00,
2013-01-04 01:28:00,16.3,-1.3,29.15,SSW,211,3.6,3.6,45,0.00,,,0.00,VWS V14.01,2013-01-04 07:28:00,
2013-01-04 01:33:00,16.2,-1.4,29.15,SW,214,4.9,4.9,45,0.00,,,0.00,VWS V14.01,2013-01-04 07:33:00,
2013-01-04 01:38:00,16.7,-0.9,29.15,SW,214,4.9,4.9,45,0.00,,,0.00,VWS V14.01,2013-01-04 07:38:00,
2013-01-04 01:43:00,16.7,-0.9,29.15,SSW,212,8.7,8.7,45,0.00,,,0.00,VWS V14.01,2013-01-04 07:43:00,
2013-01-04 01:48:00,17.6,0.3,29.15,SW,214,6.3,6.3,46,0.00,,,0.00,VWS V14.01,2013-01-04 07:48:00,
2013-01-04 01:53:00,17.6,0.3,29.15,SW,219,3.6,3.6,46,0.00,,,0.00,VWS V14.01,2013-01-04 07:53:00,
2013-01-04 01:58:00,18.0,0.7,29.15,SW,222,8.1,8.1,46,0.00,,,0.00,VWS V14.01,2013-01-04 07:58:00,
2013-01-04 02:03:00,18.1,0.9,29.15,SW,215,3.6,3.6,46,0.00,,,0.00,VWS V14.01,2013-01-04 08:03:00,
2013-01-04 02:08:00,18.0,0.7,29.15,SSW,207,3.6,3.6,46,0.00,,,0.00,VWS V14.01,2013-01-04 08:08:00,
2013-01-04 02:13:00,17.8,0.5,29.15,SSW,213,4.0,4.0,46,0.00,,,0.00,VWS V14.01,2013-01-04 08:13:00,
2013-01-04 02:18:00,17.8,0.5,29.15,SSW,212,3.1,3.1,46,0.00,,,0.00,VWS V14.01,2013-01-04 08:18:00,
2013-01-04 02:23:00,17.8,0.5,29.15,SSW,210,5.4,5.4,46,0.00,,,0.00,VWS V14.01,2013-01-04 08:23:00,
2013-01-04 02:28:00,17.8,0.5,29.15,SSW,208,4.9,4.9,46,0.00,,,0.00,VWS V14.01,2013-01-04 08:28:00,
2013-01-04 02:33:00,16.9,-0.3,29.15,SSW,209,3.6,3.6,46,0.00,,,0.00,VWS V14.01,2013-01-04 08:33:00,
2013-01-04 02:38:00,16.7,-0.5,29.15,SSW,208,3.1,3.1,46,0.00,,,0.00,VWS V14.01,2013-01-04 08:38:00,
2013-01-04 02:43:00,16.5,-0.6,29.15,SSW,206,6.3,6.3,46,0.00,,,0.00,VWS V14.01,2013-01-04 08:43:00,
2013-01-04 02:48:00,16.5,-0.6,29.15,SSW,205,6.3,6.3,46,0.00,,,0.00,VWS V14.01,2013-01-04 08:48:00,
2013-01-04 02:53:00,16.5,-0.6,29.15,SSW,203,3.6,4.0,46,0.00,,,0.00,VWS V14.01,2013-01-04 08:53:00,
2013-01-04 02:58:00,16.3,-0.8,29.12,SSW,204,4.9,4.9,46,0.00,,,0.00,VWS V14.01,2013-01-04 08:58:00,
2013-01-04 03:03:00,16.3,-0.8,29.12,SSW,205,5.4,5.4,46,0.00,,,0.00,VWS V14.01,2013-01-04 09:03:00,
2013-01-04 03:08:00,16.3,-0.8,29.15,SSW,204,4.9,4.9,46,0.00,,,0.00,VWS V14.01,2013-01-04 09:08:00,
2013-01-04 03:13:00,16.2,-1.0,29.15,SSW,204,3.1,3.1,46,0.00,,,0.00,VWS V14.01,2013-01-04 09:13:00,
2013-01-04 03:18:00,16.2,-1.0,29.15,SSW,205,3.1,3.1,46,0.00,,,0.00,VWS V14.01,2013-01-04 09:18:00,
2013-01-04 03:23:00,16.3,-0.3,29.15,SSW,206,3.1,3.1,47,0.00,,,0.00,VWS V14.01,2013-01-04 09:23:00,
2013-01-04 03:28:00,16.3,-0.3,29.15,SSW,206,4.9,4.9,47,0.00,,,0.00,VWS V14.01,2013-01-04 09:28:00,
2013-01-04 03:33:00,16.9,0.2,29.15,SSW,208,4.0,4.0,47,0.00,,,0.00,VWS V14.01,2013-01-04 09:33:00,
2013-01-04 03:38:00,17.1,0.3,29.15,SSW,208,5.8,5.8,47,0.00,,,0.00,VWS V14.01,2013-01-04 09:38:00,
2013-01-04 03:43:00,17.1,0.3,29.12,SW,221,6.3,6.3,47,0.00,,,0.00,VWS V14.01,2013-01-04 09:43:00,
2013-01-04 03:48:00,17.8,1.0,29.12,SSW,194,6.3,6.3,47,0.00,,,0.00,VWS V14.01,2013-01-04 09:48:00,
2013-01-04 03:53:00,17.8,1.0,29.12,SSW,209,7.6,7.6,47,0.00,,,0.00,VWS V14.01,2013-01-04 09:53:00,
2013-01-04 03:58:00,17.8,1.0,29.12,SSW,209,5.4,5.8,47,0.00,,,0.00,VWS V14.01,2013-01-04 09:58:00,
2013-01-04 04:03:00,17.8,1.0,29.12,SSW,205,8.1,8.3,47,0.00,,,0.00,VWS V14.01,2013-01-04 10:03:00,
2013-01-04 04:08:00,17.8,1.0,29.12,SSW,198,8.7,8.7,47,0.00,,,0.00,VWS V14.01,2013-01-04 10:08:00,
2013-01-04 04:13:00,18.0,1.1,29.12,SSW,209,5.4,5.4,47,0.00,,,0.00,VWS V14.01,2013-01-04 10:13:00,
2013-01-04 04:18:00,18.0,1.1,29.12,SW,222,4.0,4.0,47,0.00,,,0.00,VWS V14.01,2013-01-04 10:18:00,
2013-01-04 04:23:00,18.0,1.1,29.12,SSW,200,6.3,6.3,47,0.00,,,0.00,VWS V14.01,2013-01-04 10:23:00,
2013-01-04 04:28:00,18.1,1.3,29.12,SSW,205,5.4,5.4,47,0.00,,,0.00,VWS V14.01,2013-01-04 10:28:00,
2013-01-04 04:33:00,18.3,1.5,29.12,SSW,212,8.1,8.1,47,0.00,,,0.00,VWS V14.01,2013-01-04 10:33:00,
2013-01-04 04:38:00,18.3,1.5,29.12,SW,214,5.8,8.1,47,0.00,,,0.00,VWS V14.01,2013-01-04 10:38:00,
2013-01-04 04:43:00,18.3,1.5,29.12,SSW,205,4.0,4.0,47,0.00,,,0.00,VWS V14.01,2013-01-04 10:43:00,
2013-01-04 04:48:00,18.1,1.3,29.12,SSW,200,6.3,6.3,47,0.00,,,0.00,VWS V14.01,2013-01-04 10:48:00,
2013-01-04 04:53:00,18.0,1.1,29.12,SSW,202,5.4,5.4,47,0.00,,,0.00,VWS V14.01,2013-01-04 10:53:00,
2013-01-04 04:58:00,17.8,1.0,29.12,SSW,199,5.4,5.4,47,0.00,,,0.00,VWS V14.01,2013-01-04 10:58:00,
2013-01-04 05:03:00,17.8,1.0,29.12,SSW,201,6.7,6.7,47,0.00,,,0.00,VWS V14.01,2013-01-04 11:03:00,
2013-01-04 05:08:00,17.6,0.8,29.12,SSW,203,5.8,5.8,47,0.00,,,0.00,VWS V14.01,2013-01-04 11:08:00,
2013-01-04 05:13:00,17.4,0.6,29.12,SSW,197,3.6,3.6,47,0.00,,,0.00,VWS V14.01,2013-01-04 11:13:00,
2013-01-04 05:18:00,17.2,0.5,29.12,SSW,202,5.8,5.8,47,0.00,,,0.00,VWS V14.01,2013-01-04 11:18:00,
2013-01-04 05:23:00,17.2,0.5,29.12,SSW,202,4.9,5.4,47,0.00,,,0.00,VWS V14.01,2013-01-04 11:23:00,
2013-01-04 05:28:00,17.2,0.5,29.12,SSW,202,3.6,3.6,47,0.00,,,0.00,VWS V14.01,2013-01-04 11:28:00,
2013-01-04 05:33:00,17.1,0.3,29.12,SSW,202,4.9,4.9,47,0.00,,,0.00,VWS V14.01,2013-01-04 11:33:00,
2013-01-04 05:38:00,17.1,0.3,29.12,SSW,202,4.0,4.0,47,0.00,,,0.00,VWS V14.01,2013-01-04 11:38:00,
2013-01-04 05:43:00,16.7,0.0,29.12,SSW,202,3.1,3.1,47,0.00,,,0.00,VWS V14.01,2013-01-04 11:43:00,
2013-01-04 05:48:00,16.7,0.0,29.12,SSW,202,0.0,0.0,47,0.00,,,0.00,VWS V14.01,2013-01-04 11:48:00,
2013-01-04 05:53:00,16.7,0.0,29.12,SSW,202,0.0,0.0,47,0.00,,,0.00,VWS V14.01,2013-01-04 11:53:00,
2013-01-04 05:58:00,16.7,0.0,29.12,SSW,202,0.0,0.0,47,0.00,,,0.00,VWS V14.01,2013-01-04 11:58:00,
2013-01-04 06:03:00,16.7,0.0,29.12,SSW,202,0.0,0.0,47,0.00,,,0.00,VWS V14.01,2013-01-04 12:03:00,
2013-01-04 06:08:00,15.8,-1.3,29.12,SSW,202,0.0,0.0,46,0.00,,,0.00,VWS V14.01,2013-01-04 12:08:00,
2013-01-04 06:13:00,15.4,-1.6,29.09,SSW,202,0.0,0.0,46,0.00,,,0.00,VWS V14.01,2013-01-04 12:13:00,
2013-01-04 06:18:00,15.4,-1.2,29.09,SSW,200,3.6,4.5,47,0.00,,,0.00,VWS V14.01,2013-01-04 12:18:00,
2013-01-04 06:23:00,15.6,-1.0,29.09,SSW,202,2.7,2.7,47,0.00,,,0.00,VWS V14.01,2013-01-04 12:23:00,
2013-01-04 06:28:00,15.6,-1.0,29.09,SSW,202,2.7,2.7,47,0.00,,,0.00,VWS V14.01,2013-01-04 12:28:00,
2013-01-04 06:33:00,16.0,-0.7,29.09,SSW,202,5.4,5.4,47,0.00,,,0.00,VWS V14.01,2013-01-04 12:33:00,
2013-01-04 06:38:00,16.0,-0.7,29.09,SSW,202,4.0,4.0,47,0.00,,,0.00,VWS V14.01,2013-01-04 12:38:00,
2013-01-04 06:43:00,16.0,-0.7,29.09,SSW,202,4.0,4.0,47,0.00,,,0.00,VWS V14.01,2013-01-04 12:43:00,
2013-01-04 06:48:00,16.0,-0.7,29.09,SSW,202,2.7,4.9,47,0.00,,,0.00,VWS V14.01,2013-01-04 12:48:00,
2013-01-04 06:53:00,16.3,-0.8,29.09,SSW,202,2.7,3.6,46,0.00,,,0.00,VWS V14.01,2013-01-04 12:53:00,
2013-01-04 06:58:00,16.2,-1.0,29.09,SSW,202,4.0,4.0,46,0.00,,,0.00,VWS V14.01,2013-01-04 12:58:00,
2013-01-04 07:03:00,16.0,-1.1,29.09,SSW,203,3.1,3.1,46,0.00,,,0.00,VWS V14.01,2013-01-04 13:03:00,
2013-01-04 07:08:00,16.0,-1.1,29.09,SSW,202,4.0,4.0,46,0.00,,,0.00,VWS V14.01,2013-01-04 13:08:00,
2013-01-04 07:13:00,15.8,-1.3,29.09,SSW,202,4.9,4.9,46,0.00,,,0.00,VWS V14.01,2013-01-04 13:13:00,
2013-01-04 07:18:00,15.4,-1.6,29.09,SSW,202,2.7,4.0,46,0.00,,,0.00,VWS V14.01,2013-01-04 13:18:00,
2013-01-04 07:23:00,15.4,-1.6,29.09,SSW,201,5.4,5.4,46,0.00,,,0.00,VWS V14.01,2013-01-04 13:23:00,
2013-01-04 07:28:00,15.3,-1.8,29.09,SSW,202,4.9,4.9,46,0.00,,,0.00,VWS V14.01,2013-01-04 13:28:00,
2013-01-04 07:33:00,15.1,-2.0,29.09,SSW,202,3.6,3.6,46,0.00,,,0.00,VWS V14.01,2013-01-04 13:33:00,
2013-01-04 07:38:00,15.3,-1.8,29.09,SSW,203,5.8,5.8,46,0.00,,,0.00,VWS V14.01,2013-01-04 13:38:00,
2013-01-04 07:43:00,15.3,-1.8,29.09,SSW,203,5.8,5.8,46,0.00,,,0.00,VWS V14.01,2013-01-04 13:43:00,
2013-01-04 07:48:00,15.3,-1.8,29.09,SSW,202,5.8,5.8,46,0.00,,,0.00,VWS V14.01,2013-01-04 13:48:00,
2013-01-04 07:53:00,15.1,-2.0,29.09,SSW,202,6.3,6.3,46,0.00,,,0.00,VWS V14.01,2013-01-04 13:53:00,
2013-01-04 07:58:00,15.3,-1.8,29.09,SSW,204,4.0,5.4,46,0.00,,,0.00,VWS V14.01,2013-01-04 13:58:00,
2013-01-04 08:02:00,15.3,-1.8,29.09,SSW,204,5.8,5.8,46,0.00,,,0.00,VWS V14.01,2013-01-04 14:02:00,
2013-01-04 08:07:00,15.3,-1.8,29.09,SSW,203,4.5,4.5,46,0.00,,,0.00,VWS V14.01,2013-01-04 14:07:00,
2013-01-04 08:12:00,15.3,-1.8,29.09,SSW,204,3.6,3.6,46,0.00,,,0.00,VWS V14.01,2013-01-04 14:12:00,
2013-01-04 08:17:00,15.8,-1.3,29.09,SSW,203,7.6,7.6,46,0.00,,,0.00,VWS V14.01,2013-01-04 14:17:00,
2013-01-04 08:22:00,15.8,-1.3,29.09,SSW,203,5.4,5.4,46,0.00,,,0.00,VWS V14.01,2013-01-04 14:22:00,
2013-01-04 08:27:00,16.3,-0.8,29.09,SSW,203,4.0,4.0,46,0.00,,,0.00,VWS V14.01,2013-01-04 14:27:00,
2013-01-04 08:32:00,16.9,-0.3,29.09,SSW,203,6.3,6.3,46,0.00,,,0.00,VWS V14.01,2013-01-04 14:32:00,
2013-01-04 08:37:00,17.1,-0.1,29.09,SSW,204,5.4,6.3,46,0.00,,,0.00,VWS V14.01,2013-01-04 14:37:00,
2013-01-04 08:42:00,17.6,0.3,29.09,SSW,201,5.8,8.1,46,0.00,,,0.00,VWS V14.01,2013-01-04 14:42:00,
2013-01-04 08:47:00,17.8,0.1,29.09,SSW,201,5.4,5.4,45,0.00,,,0.00,VWS V14.01,2013-01-04 14:47:00,
2013-01-04 08:52:00,18.1,0.4,29.09,SSW,203,4.0,4.0,45,0.00,,,0.00,VWS V14.01,2013-01-04 14:52:00,
2013-01-04 08:57:00,18.7,0.4,29.09,SSW,200,5.8,5.8,44,0.00,,,0.00,VWS V14.01,2013-01-04 14:57:00,
2013-01-04 09:02:00,18.7,0.4,29.09,SSW,202,7.6,7.6,44,0.00,,,0.00,VWS V14.01,2013-01-04 15:02:00,
2013-01-04 09:07:00,19.4,1.1,29.09,SSW,199,8.1,8.1,44,0.00,,,0.00,VWS V14.01,2013-01-04 15:07:00,
2013-01-04 09:12:00,19.4,1.1,29.09,SSW,196,7.6,7.6,44,0.00,,,0.00,VWS V14.01,2013-01-04 15:12:00,
2013-01-04 09:17:00,19.6,0.7,29.09,SSW,203,6.3,7.6,43,0.00,,,0.00,VWS V14.01,2013-01-04 15:17:00,
2013-01-04 09:22:00,19.9,0.6,29.09,SSW,202,7.6,7.6,42,0.00,,,0.00,VWS V14.01,2013-01-04 15:22:00,
2013-01-04 09:27:00,19.9,0.6,29.09,SSW,205,6.3,6.3,42,0.00,,,0.00,VWS V14.01,2013-01-04 15:27:00,
2013-01-04 09:32:00,20.3,0.4,29.09,SSW,200,6.3,6.3,41,0.00,,,0.00,VWS V14.01,2013-01-04 15:32:00,
2013-01-04 09:37:00,20.5,0.0,29.09,SSW,195,5.8,5.8,40,0.00,,,0.00,VWS V14.01,2013-01-04 15:37:00,
2013-01-04 09:42:00,20.8,0.3,29.09,SSW,196,4.0,5.8,40,0.00,,,0.00,VWS V14.01,2013-01-04 15:42:00,
2013-01-04 09:47:00,20.8,0.3,29.09,SSW,198,8.1,8.1,40,0.00,,,0.00,VWS V14.01,2013-01-04 15:47:00,
2013-01-04 09:52:00,21.2,0.1,29.12,SSW,204,6.3,6.3,39,0.00,,,0.00,VWS V14.01,2013-01-04 15:52:00,
2013-01-04 09:57:00,21.6,-0.7,29.12,SW,232,9.6,9.6,37,0.00,,,0.00,VWS V14.01,2013-01-04 15:57:00,
2013-01-04 10:02:00,21.9,-0.9,29.12,SW,220,3.6,4.9,36,0.00,,,0.00,VWS V14.01,2013-01-04 16:02:00,
2013-01-04 10:07:00,21.9,-0.9,29.12,SW,221,5.8,8.1,36,0.00,,,0.00,VWS V14.01,2013-01-04 16:07:00,
2013-01-04 10:12:00,22.1,-0.8,29.12,SW,214,5.8,5.8,36,0.00,,,0.00,VWS V14.01,2013-01-04 16:12:00,
2013-01-04 10:17:00,22.8,-0.1,29.12,SW,218,3.6,5.8,36,0.00,,,0.00,VWS V14.01,2013-01-04 16:17:00,
2013-01-04 10:22:00,22.8,-0.1,29.12,SW,219,3.6,3.6,36,0.00,,,0.00,VWS V14.01,2013-01-04 16:22:00,
2013-01-04 10:27:00,23.4,-0.2,29.12,SW,218,5.4,5.4,35,0.00,,,0.00,VWS V14.01,2013-01-04 16:27:00,
2013-01-04 10:32:00,23.5,-0.7,29.12,SW,218,4.9,4.9,34,0.00,,,0.00,VWS V14.01,2013-01-04 16:32:00,
2013-01-04 10:37:00,24.1,-0.2,29.12,SW,218,2.7,3.1,34,0.00,,,0.00,VWS V14.01,2013-01-04 16:37:00,
2013-01-04 10:42:00,24.4,0.1,29.12,SW,218,3.6,3.6,34,0.00,,,0.00,VWS V14.01,2013-01-04 16:42:00,
2013-01-04 10:47:00,24.6,0.3,29.12,SW,225,4.0,4.0,34,0.00,,,0.00,VWS V14.01,2013-01-04 16:47:00,
2013-01-04 10:52:00,24.8,-0.2,29.12,SW,222,8.7,8.7,33,0.00,,,0.00,VWS V14.01,2013-01-04 16:52:00,
2013-01-04 10:57:00,24.8,-0.2,29.12,SSW,206,6.3,6.3,33,0.00,,,0.00,VWS V14.01,2013-01-04 16:57:00,
2013-01-04 11:02:00,24.6,-0.4,29.12,SW,214,5.4,8.1,33,0.00,,,0.00,VWS V14.01,2013-01-04 17:02:00,
2013-01-04 11:07:00,25.3,-0.4,29.12,South,171,5.4,5.4,32,0.00,,,0.00,VWS V14.01,2013-01-04 17:07:00,
2013-01-04 11:12:00,25.7,-0.1,29.12,South,186,8.3,8.3,32,0.00,,,0.00,VWS V14.01,2013-01-04 17:12:00,
2013-01-04 11:17:00,26.6,0.7,29.12,SSW,194,9.2,9.2,32,0.00,,,0.00,VWS V14.01,2013-01-04 17:17:00,
2013-01-04 11:22:00,26.6,0.7,29.12,South,191,11.0,11.0,32,0.00,,,0.00,VWS V14.01,2013-01-04 17:22:00,
2013-01-04 11:27:00,26.6,0.7,29.12,SSW,192,8.3,8.3,32,0.00,,,0.00,VWS V14.01,2013-01-04 17:27:00,
2013-01-04 11:32:00,27.3,0.7,29.12,SSW,196,6.3,6.3,31,0.00,,,0.00,VWS V14.01,2013-01-04 17:32:00,
2013-01-04 11:37:00,27.7,1.0,29.12,South,186,8.7,8.7,31,0.00,,,0.00,VWS V14.01,2013-01-04 17:37:00,
2013-01-04 11:42:00,28.0,1.3,29.12,South,191,8.1,8.1,31,0.00,,,0.00,VWS V14.01,2013-01-04 17:42:00,
2013-01-04 11:47:00,28.2,1.5,29.12,SSW,194,6.3,6.3,31,0.00,,,0.00,VWS V14.01,2013-01-04 17:47:00,
2013-01-04 11:52:00,28.9,2.1,29.12,SSW,195,8.3,8.3,31,0.00,,,0.00,VWS V14.01,2013-01-04 17:52:00,
2013-01-04 11:57:00,28.9,2.1,29.09,SSW,196,5.4,6.3,31,0.00,,,0.00,VWS V14.01,2013-01-04 17:57:00,
2013-01-04 12:02:00,29.8,2.2,29.09,SSW,202,3.6,6.3,30,0.00,,,0.00,VWS V14.01,2013-01-04 18:02:00,
2013-01-04 12:07:00,30.9,3.1,29.09,SSW,202,3.6,3.6,30,0.00,,,0.00,VWS V14.01,2013-01-04 18:07:00,
2013-01-04 12:12:00,31.5,3.6,29.09,SSW,200,4.9,5.4,30,0.00,,,0.00,VWS V14.01,2013-01-04 18:12:00,
2013-01-04 12:17:00,31.5,3.6,29.09,SSW,192,3.6,3.6,30,0.00,,,0.00,VWS V14.01,2013-01-04 18:17:00,
2013-01-04 12:22:00,33.1,3.5,29.09,South,190,7.6,7.6,28,0.00,,,0.00,VWS V14.01,2013-01-04 18:22:00,
2013-01-04 12:27:00,33.8,3.4,29.09,SSW,192,6.3,6.3,27,0.00,,,0.00,VWS V14.01,2013-01-04 18:27:00,
2013-01-04 12:32:00,33.4,3.8,29.09,SSW,197,4.0,6.3,28,0.00,,,0.00,VWS V14.01,2013-01-04 18:32:00,
2013-01-04 12:37:00,32.4,0.5,29.09,SSW,198,6.3,6.3,25,0.00,,,0.00,VWS V14.01,2013-01-04 18:37:00,
2013-01-04 12:42:00,32.4,0.5,29.06,SSW,194,8.3,8.3,25,0.00,,,0.00,VWS V14.01,2013-01-04 18:42:00,
2013-01-04 12:47:00,32.7,0.8,29.06,SSW,196,5.8,5.8,25,0.00,,,0.00,VWS V14.01,2013-01-04 18:47:00,
2013-01-04 12:52:00,33.4,1.4,29.06,SSW,202,6.7,6.7,25,0.00,,,0.00,VWS V14.01,2013-01-04 18:52:00,
2013-01-04 12:57:00,33.4,1.4,29.06,SSW,201,7.6,7.6,25,0.00,,,0.00,VWS V14.01,2013-01-04 18:57:00,
2013-01-04 13:02:00,33.6,1.6,29.06,SSW,196,8.1,8.1,25,0.00,,,0.00,VWS V14.01,2013-01-04 19:02:00,
2013-01-04 13:07:00,34.3,2.2,29.06,SSW,197,7.6,7.6,25,0.00,,,0.00,VWS V14.01,2013-01-04 19:07:00,
2013-01-04 13:12:00,34.3,2.2,29.06,SSW,196,7.6,7.6,25,0.00,,,0.00,VWS V14.01,2013-01-04 19:12:00,
2013-01-04 13:17:00,35.2,3.0,29.06,South,191,6.7,6.7,25,0.00,,,0.00,VWS V14.01,2013-01-04 19:17:00,
2013-01-04 13:22:00,35.2,3.0,29.06,South,191,4.0,4.0,25,0.00,,,0.00,VWS V14.01,2013-01-04 19:22:00,
2013-01-04 13:23:00,35.2,3.0,29.06,South,191,4.0,4.0,25,0.00,,,0.00,VWS V14.01,2013-01-04 19:23:00,
2013-01-04 13:44:00,37.0,1.7,29.03,SSW,196,3.6,3.6,22,0.00,,,0.00,VWS V14.01,2013-01-04 19:44:00,
2013-01-04 13:49:00,37.0,1.7,29.03,SSW,198,3.1,6.3,22,0.00,,,0.00,VWS V14.01,2013-01-04 19:49:00,
2013-01-04 13:54:00,37.0,1.7,29.03,SSW,201,3.1,7.6,22,0.00,,,0.00,VWS V14.01,2013-01-04 19:54:00,
2013-01-04 13:59:00,37.6,1.2,29.03,SSW,195,5.4,8.1,21,0.00,,,0.00,VWS V14.01,2013-01-04 19:59:00,
2013-01-04 14:04:00,38.5,2.0,29.03,South,190,6.7,7.6,21,0.00,,,0.00,VWS V14.01,2013-01-04 20:04:00,
2013-01-04 14:09:00,38.7,2.1,29.03,SSW,192,5.8,6.3,21,0.00,,,0.00,VWS V14.01,2013-01-04 20:09:00,
2013-01-04 14:14:00,37.9,1.5,29.03,South,190,5.8,7.6,21,0.00,,,0.00,VWS V14.01,2013-01-04 20:14:00,
2013-01-04 14:19:00,38.3,1.8,29.03,SSW,197,5.4,8.1,21,0.00,,,0.00,VWS V14.01,2013-01-04 20:19:00,
2013-01-04 14:24:00,38.7,2.1,29.03,SSW,200,3.6,5.8,21,0.00,,,0.00,VWS V14.01,2013-01-04 20:24:00,
2013-01-04 14:29:00,39.9,3.2,29.03,SSW,197,2.7,4.0,21,0.00,,,0.00,VWS V14.01,2013-01-04 20:29:00,
2013-01-04 14:34:00,40.8,3.9,29.03,SSW,198,5.8,6.3,21,0.00,,,0.00,VWS V14.01,2013-01-04 20:34:00,
2013-01-04 14:39:00,40.8,3.9,29.03,SSW,198,6.3,6.3,21,0.00,,,0.00,VWS V14.01,2013-01-04 20:39:00,
2013-01-04 14:44:00,41.0,4.1,29.03,SSW,198,3.6,4.0,21,0.00,,,0.00,VWS V14.01,2013-01-04 20:44:00,
2013-01-04 14:49:00,41.7,4.7,29.03,SSW,197,3.1,4.0,21,0.00,,,0.00,VWS V14.01,2013-01-04 20:49:00,
2013-01-04 14:54:00,41.5,4.5,29.03,SSW,198,0.0,3.6,21,0.00,,,0.00,VWS V14.01,2013-01-04 20:54:00,
2013-01-04 14:59:00,41.9,4.8,29.03,SSW,198,0.0,0.0,21,0.00,,,0.00,VWS V14.01,2013-01-04 20:59:00,
2013-01-04 15:04:00,42.4,5.3,29.03,SSW,198,2.2,4.0,21,0.00,,,0.00,VWS V14.01,2013-01-04 21:04:00,
2013-01-04 15:09:00,42.1,5.0,29.03,SSW,198,2.2,3.1,21,0.00,,,0.00,VWS V14.01,2013-01-04 21:09:00,
2013-01-04 15:14:00,40.3,3.5,29.03,SSW,198,0.0,0.0,21,0.00,,,0.00,VWS V14.01,2013-01-04 21:14:00,
2013-01-04 15:19:00,39.6,2.9,29.03,SSW,198,2.7,2.7,21,0.00,,,0.00,VWS V14.01,2013-01-04 21:19:00,
2013-01-04 15:24:00,41.0,4.1,29.03,SSW,198,4.9,4.9,21,0.00,,,0.00,VWS V14.01,2013-01-04 21:24:00,
2013-01-04 15:29:00,42.3,5.1,29.03,SSW,198,3.6,3.6,21,0.00,,,0.00,VWS V14.01,2013-01-04 21:29:00,
2013-01-04 15:34:00,43.0,4.7,29.03,SSW,198,0.0,0.0,20,0.00,,,0.00,VWS V14.01,2013-01-04 21:34:00,
2013-01-04 15:39:00,43.3,5.0,29.03,SSW,198,2.2,2.7,20,0.00,,,0.00,VWS V14.01,2013-01-04 21:39:00,
2013-01-04 15:44:00,43.7,5.3,29.03,SSW,198,3.6,3.6,20,0.00,,,0.00,VWS V14.01,2013-01-04 21:44:00,
2013-01-04 15:49:00,43.9,5.4,29.03,SSW,197,5.4,5.8,20,0.00,,,0.00,VWS V14.01,2013-01-04 21:49:00,
2013-01-04 15:54:00,43.5,5.1,29.03,SSW,196,5.4,6.3,20,0.00,,,0.00,VWS V14.01,2013-01-04 21:54:00,
2013-01-04 15:59:00,43.0,4.7,29.03,SSW,196,4.5,4.5,20,0.00,,,0.00,VWS V14.01,2013-01-04 21:59:00,
2013-01-04 16:04:00,42.8,4.5,29.03,SSW,195,4.0,4.9,20,0.00,,,0.00,VWS V14.01,2013-01-04 22:04:00,
2013-01-04 16:09:00,42.3,5.1,29.03,SSW,195,5.8,6.3,21,0.00,,,0.00,VWS V14.01,2013-01-04 22:09:00,
2013-01-04 16:14:00,41.7,4.7,29.03,SSW,194,4.0,5.8,21,0.00,,,0.00,VWS V14.01,2013-01-04 22:14:00,
2013-01-04 16:19:00,41.2,4.2,29.03,SSW,193,5.8,6.3,21,0.00,,,0.00,VWS V14.01,2013-01-04 22:19:00,
2013-01-04 16:24:00,40.3,3.5,29.03,SSW,192,3.6,6.3,21,0.00,,,0.00,VWS V14.01,2013-01-04 22:24:00,
2013-01-04 16:29:00,39.4,2.7,29.03,SSW,192,5.4,5.4,21,0.00,,,0.00,VWS V14.01,2013-01-04 22:29:00,
2013-01-04 16:34:00,38.3,1.8,29.03,SSW,194,2.7,5.8,21,0.00,,,0.00,VWS V14.01,2013-01-04 22:34:00,
2013-01-04 16:39:00,37.4,1.0,29.03,SSW,194,4.0,4.9,21,0.00,,,0.00,VWS V14.01,2013-01-04 22:39:00,
2013-01-04 16:44:00,36.7,1.4,29.03,SSW,193,4.9,5.4,22,0.00,,,0.00,VWS V14.01,2013-01-04 22:44:00,
2013-01-04 16:49:00,35.8,0.7,29.03,SSW,194,3.6,5.8,22,0.00,,,0.00,VWS V14.01,2013-01-04 22:49:00,
2013-01-04 16:54:00,35.2,0.2,29.03,SSW,193,5.8,7.2,22,0.00,,,0.00,VWS V14.01,2013-01-04 22:54:00,
2013-01-04 16:59:00,34.3,-0.6,29.03,SSW,192,7.2,7.2,22,0.00,,,0.00,VWS V14.01,2013-01-04 22:59:00,
2013-01-04 17:04:00,33.3,-0.5,29.03,South,187,5.8,5.8,23,0.00,,,0.00,VWS V14.01,2013-01-04 23:04:00,
2013-01-04 17:09:00,32.5,-1.1,29.03,South,190,4.0,6.3,23,0.00,,,0.00,VWS V14.01,2013-01-04 23:09:00,
2013-01-04 17:14:00,31.8,-1.8,29.03,South,187,7.2,10.5,23,0.00,,,0.00,VWS V14.01,2013-01-04 23:14:00,
2013-01-04 17:19:00,31.1,-2.4,29.03,South,190,6.3,6.3,23,0.00,,,0.00,VWS V14.01,2013-01-04 23:19:00,
2013-01-04 17:24:00,30.6,-1.1,29.03,South,191,5.4,6.3,25,0.00,,,0.00,VWS V14.01,2013-01-04 23:24:00,
2013-01-04 17:29:00,30.0,-1.5,29.03,South,191,4.0,5.4,25,0.00,,,0.00,VWS V14.01,2013-01-04 23:29:00,
2013-01-04 17:34:00,29.5,-2.0,29.03,South,191,5.4,5.4,25,0.00,,,0.00,VWS V14.01,2013-01-04 23:34:00,
2013-01-04 17:39:00,29.1,-2.3,29.03,South,190,5.8,6.3,25,0.00,,,0.00,VWS V14.01,2013-01-04 23:39:00,
2013-01-04 17:44:00,28.8,-0.2,29.03,South,190,6.3,6.3,28,0.00,,,0.00,VWS V14.01,2013-01-04 23:44:00,
2013-01-04 17:49:00,28.6,-0.4,29.03,South,191,5.4,6.3,28,0.00,,,0.00,VWS V14.01,2013-01-04 23:49:00,
2013-01-04 17:54:00,28.0,1.3,29.03,South,191,3.6,4.0,31,0.00,,,0.00,VWS V14.01,2013-01-04 23:54:00,
2013-01-04 17:59:00,27.7,1.0,29.03,South,191,4.0,4.0,31,0.00,,,0.00,VWS V14.01,2013-01-04 23:59:00,
2013-01-04 18:04:00,27.3,0.7,29.03,South,191,4.9,5.8,31,0.00,,,0.00,VWS V14.01,2013-01-05 00:04:00,
2013-01-04 18:09:00,27.0,0.4,29.03,South,191,5.8,5.8,31,0.00,,,0.00,VWS V14.01,2013-01-05 00:09:00,
2013-01-04 18:14:00,27.0,0.4,29.03,South,189,5.4,8.3,31,0.00,,,0.00,VWS V14.01,2013-01-05 00:14:00,
2013-01-04 18:19:00,26.8,0.2,29.03,South,188,5.4,5.8,31,0.00,,,0.00,VWS V14.01,2013-01-05 00:19:00,
2013-01-04 18:24:00,26.4,0.6,29.03,South,188,6.3,7.6,32,0.00,,,0.00,VWS V14.01,2013-01-05 00:24:00,
2013-01-04 18:29:00,26.2,0.4,29.03,South,187,6.3,7.6,32,0.00,,,0.00,VWS V14.01,2013-01-05 00:29:00,
2013-01-04 18:34:00,26.1,0.2,29.03,South,187,5.8,5.8,32,0.00,,,0.00,VWS V14.01,2013-01-05 00:34:00,
2013-01-04 18:38:00,25.9,0.1,29.03,South,187,5.8,5.8,32,0.00,,,0.00,VWS V14.01,2013-01-05 00:38:00,
2013-01-04 18:43:00,25.7,0.6,29.03,South,188,5.4,8.3,33,0.00,,,0.00,VWS V14.01,2013-01-05 00:43:00,
2013-01-04 18:48:00,25.5,0.4,29.03,South,190,5.8,7.6,33,0.00,,,0.00,VWS V14.01,2013-01-05 00:48:00,
2013-01-04 18:53:00,25.5,0.4,29.03,South,187,5.8,5.8,33,0.00,,,0.00,VWS V14.01,2013-01-05 00:53:00,
2013-01-04 18:59:00,25.3,0.3,29.03,South,186,5.4,6.3,33,0.00,,,0.00,VWS V14.01,2013-01-05 00:59:00,
2013-01-04 19:04:00,25.3,0.3,29.03,South,185,6.3,6.3,33,0.00,,,0.00,VWS V14.01,2013-01-05 01:04:00,
2013-01-04 19:09:00,25.2,0.1,29.03,South,184,4.9,5.8,33,0.00,,,0.00,VWS V14.01,2013-01-05 01:09:00,
2013-01-04 19:14:00,25.2,0.8,29.03,South,182,2.7,7.6,34,0.00,,,0.00,VWS V14.01,2013-01-05 01:14:00,
2013-01-04 19:19:00,24.8,0.4,29.03,South,182,4.9,6.3,34,0.00,,,0.00,VWS V14.01,2013-01-05 01:19:00,
2013-01-04 19:24:00,24.4,0.1,29.03,South,182,4.0,4.0,34,0.00,,,0.00,VWS V14.01,2013-01-05 01:24:00,
2013-01-04 19:29:00,24.3,-0.1,29.03,South,182,7.6,7.6,34,0.00,,,0.00,VWS V14.01,2013-01-05 01:29:00,
2013-01-04 19:34:00,24.3,-0.1,29.03,South,182,5.4,5.8,34,0.00,,,0.00,VWS V14.01,2013-01-05 01:34:00,
2013-01-04 19:39:00,24.1,-0.2,29.03,South,182,5.8,5.8,34,0.00,,,0.00,VWS V14.01,2013-01-05 01:39:00,
2013-01-04 19:44:00,23.9,-0.4,29.03,South,181,3.6,5.8,34,0.00,,,0.00,VWS V14.01,2013-01-05 01:44:00,
2013-01-04 19:49:00,23.9,-0.4,29.03,South,182,5.4,8.1,34,0.00,,,0.00,VWS V14.01,2013-01-05 01:49:00,
2013-01-04 19:54:00,23.7,-0.5,29.03,South,181,7.6,8.3,34,0.00,,,0.00,VWS V14.01,2013-01-05 01:54:00,
2013-01-04 19:59:00,23.7,-0.5,29.03,South,182,5.4,5.8,34,0.00,,,0.00,VWS V14.01,2013-01-05 01:59:00,
2013-01-04 20:04:00,23.5,-0.7,29.03,South,181,4.0,5.8,34,0.00,,,0.00,VWS V14.01,2013-01-05 02:04:00,
2013-01-04 20:09:00,23.4,-0.9,29.03,South,181,6.3,6.3,34,0.00,,,0.00,VWS V14.01,2013-01-05 02:09:00,
2013-01-04 20:14:00,23.2,-0.4,29.03,South,181,5.8,5.8,35,0.00,,,0.00,VWS V14.01,2013-01-05 02:14:00,
2013-01-04 20:19:00,23.0,-0.6,29.03,South,182,5.4,8.1,35,0.00,,,0.00,VWS V14.01,2013-01-05 02:19:00,
2013-01-04 20:24:00,22.8,-0.7,29.03,South,181,5.4,6.3,35,0.00,,,0.00,VWS V14.01,2013-01-05 02:24:00,
2013-01-04 20:29:00,22.8,-0.7,29.03,South,182,3.6,6.3,35,0.00,,,0.00,VWS V14.01,2013-01-05 02:29:00,
2013-01-04 20:34:00,22.8,-0.1,29.03,South,182,5.4,5.4,36,0.00,,,0.00,VWS V14.01,2013-01-05 02:34:00,
2013-01-04 20:39:00,22.6,-0.3,29.03,South,182,3.1,3.1,36,0.00,,,0.00,VWS V14.01,2013-01-05 02:39:00,
2013-01-04 20:44:00,22.5,-0.4,29.03,South,182,2.7,4.0,36,0.00,,,0.00,VWS V14.01,2013-01-05 02:44:00,
2013-01-04 20:49:00,22.1,-1.4,29.03,South,182,2.7,2.7,35,0.00,,,0.00,VWS V14.01,2013-01-05 02:49:00,
2013-01-04 20:54:00,21.9,-1.5,29.03,South,182,3.6,3.6,35,0.00,,,0.00,VWS V14.01,2013-01-05 02:54:00,
2013-01-04 20:59:00,21.7,-1.1,29.03,South,182,0.0,3.6,36,0.00,,,0.00,VWS V14.01,2013-01-05 02:59:00,
2013-01-04 21:04:00,21.6,-1.2,29.03,South,182,3.1,3.1,36,0.00,,,0.00,VWS V14.01,2013-01-05 03:04:00,
2013-01-04 21:09:00,21.4,-1.4,29.03,South,182,3.1,3.1,36,0.00,,,0.00,VWS V14.01,2013-01-05 03:09:00,
2013-01-04 21:14:00,21.0,-1.7,29.03,South,182,3.1,3.1,36,0.00,,,0.00,VWS V14.01,2013-01-05 03:14:00,
2013-01-04 21:19:00,20.8,-1.9,29.03,South,182,2.7,3.1,36,0.00,,,0.00,VWS V14.01,2013-01-05 03:19:00,
2013-01-04 21:24:00,20.7,-2.1,29.03,South,182,0.0,0.0,36,0.00,,,0.00,VWS V14.01,2013-01-05 03:24:00,
2013-01-04 21:29:00,20.3,-2.4,29.03,South,182,0.0,0.0,36,0.00,,,0.00,VWS V14.01,2013-01-05 03:29:00,
2013-01-04 21:34:00,20.3,-2.4,29.03,South,182,0.0,0.0,36,0.00,,,0.00,VWS V14.01,2013-01-05 03:34:00,
2013-01-04 21:39:00,19.9,-2.7,29.03,South,182,0.0,0.0,36,0.00,,,0.00,VWS V14.01,2013-01-05 03:39:00,
2013-01-04 21:44:00,19.4,-3.2,29.03,South,182,0.0,0.0,36,0.00,,,0.00,VWS V14.01,2013-01-05 03:44:00,
2013-01-04 21:49:00,19.0,-3.5,29.03,South,182,0.0,0.0,36,0.00,,,0.00,VWS V14.01,2013-01-05 03:49:00,
2013-01-04 21:54:00,19.0,-3.5,29.03,South,182,0.0,0.0,36,0.00,,,0.00,VWS V14.01,2013-01-05 03:54:00,
2013-01-04 21:59:00,18.3,-4.2,29.03,South,182,0.0,0.0,36,0.00,,,0.00,VWS V14.01,2013-01-05 03:59:00,
2013-01-04 22:04:00,17.6,-4.2,29.03,South,182,0.0,0.0,37,0.00,,,0.00,VWS V14.01,2013-01-05 04:04:00,
2013-01-04 22:09:00,17.6,-3.7,29.03,South,182,0.0,0.0,38,0.00,,,0.00,VWS V14.01,2013-01-05 04:09:00,
2013-01-04 22:14:00,17.6,-3.7,29.03,South,182,0.0,0.0,38,0.00,,,0.00,VWS V14.01,2013-01-05 04:14:00,
2013-01-04 22:19:00,17.2,-4.0,29.03,South,182,0.0,0.0,38,0.00,,,0.00,VWS V14.01,2013-01-05 04:19:00,
2013-01-04 22:24:00,17.1,-4.2,29.03,South,182,0.0,0.0,38,0.00,,,0.00,VWS V14.01,2013-01-05 04:24:00,
2013-01-04 22:29:00,16.7,-4.5,29.03,South,182,0.0,0.0,38,0.00,,,0.00,VWS V14.01,2013-01-05 04:29:00,
2013-01-04 22:34:00,16.7,-4.5,29.03,South,182,0.0,0.0,38,0.00,,,0.00,VWS V14.01,2013-01-05 04:34:00,
2013-01-04 22:39:00,16.5,-4.7,29.03,South,182,0.0,0.0,38,0.00,,,0.00,VWS V14.01,2013-01-05 04:39:00,
2013-01-04 22:44:00,16.5,-4.7,29.03,South,182,0.0,0.0,38,0.00,,,0.00,VWS V14.01,2013-01-05 04:44:00,
2013-01-04 22:49:00,15.8,-4.8,29.03,South,182,4.0,4.0,39,0.00,,,0.00,VWS V14.01,2013-01-05 04:49:00,
2013-01-04 22:54:00,15.4,-5.1,29.03,South,182,3.1,3.1,39,0.00,,,0.00,VWS V14.01,2013-01-05 04:54:00,
2013-01-04 22:59:00,15.3,-5.2,29.03,South,182,0.0,0.0,39,0.00,,,0.00,VWS V14.01,2013-01-05 04:59:00,
2013-01-04 23:00:00,15.3,-5.2,29.03,South,182,0.0,0.0,39,0.00,,,0.00,VWS V14.01,2013-01-05 05:00:00,
2013-01-04 23:03:00,15.4,-5.1,29.03,South,182,0.0,0.0,39,0.00,,,0.00,VWS V14.01,2013-01-05 05:03:00,
2013-01-04 23:08:00,15.3,-5.2,29.03,South,182,0.0,0.0,39,0.00,,,0.00,VWS V14.01,2013-01-05 05:08:00,
2013-01-04 23:13:00,15.6,-3.9,29.03,South,182,0.0,0.0,41,0.00,,,0.00,VWS V14.01,2013-01-05 05:13:00,
2013-01-04 23:18:00,15.6,-4.4,29.03,South,182,0.0,0.0,40,0.00,,,0.00,VWS V14.01,2013-01-05 05:18:00,
2013-01-04 23:23:00,15.6,-3.9,29.03,South,182,0.0,0.0,41,0.00,,,0.00,VWS V14.01,2013-01-05 05:23:00,
2013-01-04 23:28:00,15.3,-4.7,29.03,South,182,0.0,0.0,40,0.00,,,0.00,VWS V14.01,2013-01-05 05:28:00,
2013-01-04 23:33:00,15.3,-4.7,29.00,South,182,0.0,0.0,40,0.00,,,0.00,VWS V14.01,2013-01-05 05:33:00,
2013-01-04 23:38:00,14.7,-5.2,29.00,South,182,0.0,0.0,40,0.00,,,0.00,VWS V14.01,2013-01-05 05:38:00,
2013-01-04 23:43:00,14.5,-5.4,29.00,South,182,2.7,2.7,40,0.00,,,0.00,VWS V14.01,2013-01-05 05:43:00,
2013-01-04 23:48:00,14.4,-5.5,29.00,South,182,3.6,3.6,40,0.00,,,0.00,VWS V14.01,2013-01-05 05:48:00,
2013-01-04 23:53:00,14.4,-5.0,29.00,South,182,3.1,3.1,41,0.00,,,0.00,VWS V14.01,2013-01-05 05:53:00,
2013-01-04 23:58:00,14.7,-4.7,29.00,South,182,0.0,0.0,41,0.00,,,0.00,VWS V14.01,2013-01-05 05:58:00,